Weather History for Carbondale, IL

Change the Weather History Date:

Friday, February 15, 2013

  Actual Average Record
Temperature  
Mean Temperature 36 °F -  
Max Temperature 43 °F 48 °F 75 °F (1911)
Min Temperature 28 °F 28 °F 8 °F (1920)
Degree Days  
Heating Degree Days 30    
Moisture  
Dew Point 24 °F    
Average Humidity 56    
Maximum Humidity 70    
Minimum Humidity 35    
Precipitation  
Precipitation 0.00 in - - ()
Sea Level Pressure  
Sea Level Pressure 30.20 in    
Wind  
Wind Speed 8 mph (NNW)    
Max Wind Speed 17 mph    
Max Gust Speed 23 mph    
Visibility 10 miles    
Events      
Averages and records for this station are not official NWS values.
T = Trace of Precipitation, MM = Missing Value Source: NWS Daily Summary

Daily Weather History Graph

Daily Weather History Graph

Search for Another Location

Airport:

Trip Planner

Search our weather history database for the weather conditions in past years. The results will help you decide how hot, cold, wet, or windy it might be!

Date:

Astronomy

Feb. 15, 2013 Rise Set
Actual Time 6:46 AM CST 5:36 PM CST
Civil Twilight 6:19 AM CST 6:03 PM CST
Nautical Twilight 5:48 AM CST 6:34 PM CST
Astronomical Twilight 5:18 AM CST 7:04 PM CST
Moon 9:29 AM CST (2/15) 11:29 PM CST (2/15)
Length of Visible Light 11h 43m
Length of Day
10h 50m
Waxing Crescent, 30% of the Moon is Illuminated
Feb 15
Waxing Crescent
Feb 17
First Quarter
Feb 25
Full
Mar 4
Last Quarter
Mar 11
New

Hourly Weather History & Observations

Time (CST) Temp. Windchill Dew Point Humidity Pressure Visibility Wind Dir Wind Speed Gust Speed Precip Events Conditions
12:52 AM 42.1 °F 39.2 °F 33.1 °F 70% 30.06 in 10.0 mi NW 4.6 mph - N/A   Mostly Cloudy
1:52 AM 43.0 °F 39.5 °F 33.1 °F 68% 30.08 in 10.0 mi NW 5.8 mph - N/A   Overcast
2:52 AM 43.0 °F 39.5 °F 28.9 °F 58% 30.09 in 10.0 mi NW 5.8 mph - N/A   Overcast
3:52 AM 43.0 °F 38.8 °F 28.9 °F 58% 30.10 in 10.0 mi NNW 6.9 mph - N/A   Overcast
4:52 AM 41.0 °F 39.0 °F 28.9 °F 62% 30.12 in 10.0 mi WNW 3.5 mph - N/A   Overcast
5:52 AM 42.1 °F 37.7 °F 28.9 °F 60% 30.14 in 10.0 mi NW 6.9 mph - N/A   Overcast
6:52 AM 39.0 °F 32.8 °F 28.0 °F 65% 30.17 in 10.0 mi North 9.2 mph - N/A   Partly Cloudy
7:52 AM 37.9 °F 30.9 °F 28.0 °F 68% 30.19 in 10.0 mi NNW 10.4 mph - N/A   Clear
8:52 AM 37.9 °F 28.9 °F 25.0 °F 60% 30.22 in 10.0 mi NNW 16.1 mph - N/A   Partly Cloudy
9:35 AM 39.2 °F 31.2 °F 26.6 °F 61% 30.23 in 10.0 mi NNW 13.8 mph - N/A   Mostly Cloudy
9:52 AM 39.0 °F 31.0 °F 26.1 °F 60% 30.25 in 10.0 mi NNW 13.8 mph 20.7 mph N/A   Overcast
10:33 AM 39.2 °F 31.6 °F 26.6 °F 61% 30.24 in 10.0 mi NW 12.7 mph - N/A   Scattered Clouds
10:40 AM 39.2 °F 32.0 °F 24.8 °F 56% 30.24 in 10.0 mi NW 11.5 mph - N/A   Mostly Cloudy
10:48 AM 39.2 °F 30.2 °F 24.8 °F 56% 30.24 in 10.0 mi NNW 17.3 mph 23.0 mph N/A   Mostly Cloudy
10:52 AM 39.0 °F 30.6 °F 24.1 °F 55% 30.25 in 10.0 mi NNW 15.0 mph 23.0 mph N/A   Mostly Cloudy
11:52 AM 41.0 °F 33.5 °F 21.9 °F 47% 30.24 in 10.0 mi NW 13.8 mph 23.0 mph N/A   Partly Cloudy
12:52 PM 42.1 °F 36.1 °F 21.9 °F 45% 30.23 in 10.0 mi NW 10.4 mph - N/A   Scattered Clouds
1:52 PM 42.1 °F 33.9 °F 19.0 °F 40% 30.22 in 10.0 mi North 17.3 mph 21.9 mph N/A   Clear
2:52 PM 42.1 °F 34.5 °F 18.0 °F 38% 30.22 in 10.0 mi North 15.0 mph 21.9 mph N/A   Clear
3:52 PM 42.1 °F 35.7 °F 16.0 °F 35% 30.24 in 10.0 mi NNW 11.5 mph - N/A   Clear
4:52 PM 39.9 °F 32.9 °F 15.1 °F 36% 30.24 in 10.0 mi North 11.5 mph - N/A   Clear
5:52 PM 37.0 °F 31.6 °F 16.0 °F 42% 30.24 in 10.0 mi North 6.9 mph - N/A   Clear
7:52 PM 34.0 °F - 15.1 °F 46% 30.25 in 10.0 mi Calm Calm - N/A   Clear
8:52 PM 32.0 °F - 18.0 °F 56% 30.25 in 10.0 mi Calm Calm - N/A   Clear
9:52 PM 30.0 °F - 19.0 °F 64% 30.25 in 10.0 mi Calm Calm - N/A   Clear
10:52 PM 28.9 °F - 19.9 °F 69% 30.24 in 10.0 mi Calm Calm - N/A   Clear
11:52 PM 30.0 °F - 21.0 °F 69% 30.22 in 10.0 mi Calm Calm - N/A   Clear